{"data":{"norad_id":55467,"epoch":"2026-09-20T11:11:25.791072Z","epoch_age_seconds":103281,"freshness":"FRESH","line1":"1 55467U 23015U   26263.46627073  .00000340  00000+0  21886-4 0  9997","line2":"2 55467  43.0035 308.4597 0001793 277.2737  82.7911 15.27578042200512","mean_motion":15.27578042,"eccentricity":0.0001793,"inclination_deg":43.0035,"raan_deg":308.4597,"arg_perigee_deg":277.2737,"mean_anomaly_deg":82.7911,"bstar":2.1886e-5,"rev_number":20051,"period_min":94.266869541713,"perigee_km":481.82474728405,"apogee_km":484.28517072055,"semimajor_km":6861.1919590023,"source":"CELESTRAK","updated_at":"2026-09-21T09:00:33.230948Z"}}